Change the Weather History Date:

Sunday, November 3, 2013

  Actual Average Record
Temperature  
Mean Temperature 50 °F -  
Max Temperature 58 °F 67 °F 84 °F (1971)
Min Temperature 41 °F 45 °F 27 °F (1959)
Degree Days  
Heating Degree Days 16    
Moisture  
Dew Point 34 °F    
Average Humidity 56    
Maximum Humidity 90    
Minimum Humidity 25    
Precipitation  
Precipitation 0.00 in - - ()
Sea Level Pressure  
Sea Level Pressure 30.15 in    
Wind  
Wind Speed 4 mph (NNW)    
Max Wind Speed 14 mph    
Max Gust Speed 22 mph    
Visibility 10 miles    
Events      
Averages and records for this station are not official NWS values.
T = Trace of Precipitation, MM = Missing Value Source: NWS Daily Summary

Daily Weather History Graph

Daily Weather History Graph

Search for Another Location

Airport or City:

Trip Planner

Search our weather history database for the weather conditions in past years. The results will help you decide how hot, cold, wet, or windy it might be!

Date:

Astronomy

Nov. 03, 2013 Rise Set
Actual Time 6:37 AM EST 5:04 PM EST
Civil Twilight 6:09 AM EST 5:32 PM EST
Nautical Twilight 5:38 AM EST 6:03 PM EST
Astronomical Twilight 5:06 AM EST 6:35 PM EST
Moon 6:38 AM EST (11/3) 5:18 PM EST (11/3)
Length of Visible Light 11h 22m
Length of Day
10h 27m
New Moon, 0% of the Moon is Illuminated
Nov 3
New Moon
Nov 10
First Quarter
Nov 17
Full
Nov 25
Last Quarter
Dec 2
New

Hourly Weather History & Observations

Time (EST) Temp. Windchill Dew Point Humidity Pressure Visibility Wind Dir Wind Speed Gust Speed Precip Events Conditions
12:15 AM 52.7 °F - 38.5 °F 58% 29.89 in 10.0 mi West 4.6 mph - N/A   Clear
12:35 AM 52.3 °F - 38.7 °F 60% 29.89 in 10.0 mi Calm Calm - N/A   Clear
12:55 AM 51.1 °F - 39.0 °F 63% 29.89 in 10.0 mi West 3.5 mph - N/A   Clear
1:15 AM 50.0 °F - 39.9 °F 68% 29.90 in 10.0 mi Calm Calm - N/A   Clear
1:35 AM 48.6 °F - 39.6 °F 71% 29.91 in 10.0 mi Calm Calm - N/A   Clear
1:55 AM 47.8 °F - 39.6 °F 73% 29.91 in 10.0 mi Calm Calm - N/A   Clear
1:15 AM 49.3 °F - 39.6 °F 69% 29.91 in 10.0 mi West 4.6 mph - N/A   Clear
1:35 AM 49.3 °F - 39.7 °F 70% 29.92 in 10.0 mi Calm Calm - N/A   Clear
1:55 AM 47.1 °F - 40.3 °F 77% 29.93 in 10.0 mi WSW 3.5 mph - N/A   Clear
2:15 AM 45.0 °F 43.5 °F 40.5 °F 84% 29.93 in 10.0 mi ESE 3.5 mph - N/A   Clear
2:35 AM 45.7 °F - 39.7 °F 80% 29.94 in 10.0 mi Calm Calm - N/A   Clear
2:55 AM 43.7 °F - 40.8 °F 90% 29.94 in 10.0 mi Calm Calm - N/A   Clear
3:15 AM 44.6 °F - 40.1 °F 84% 29.95 in 10.0 mi Calm Calm - N/A   Clear
3:35 AM 46.0 °F - 39.7 °F 79% 29.95 in 10.0 mi Calm Calm - N/A   Scattered Clouds
3:55 AM 47.1 °F - 40.3 °F 77% 29.96 in 10.0 mi Calm Calm - N/A   Overcast
4:15 AM 48.4 °F - 40.3 °F 74% 29.97 in 10.0 mi Calm Calm - N/A   Overcast
4:35 AM 49.5 °F - 40.5 °F 71% 29.97 in 10.0 mi West 3.5 mph - N/A   Overcast
4:55 AM 49.3 °F - 40.1 °F 71% 29.99 in 10.0 mi Calm Calm - N/A   Mostly Cloudy
5:15 AM 48.6 °F - 40.8 °F 75% 30.00 in 10.0 mi Calm Calm - N/A   Overcast
5:35 AM 49.6 °F - 40.6 °F 71% 30.00 in 10.0 mi NNW 3.5 mph - N/A   Overcast
5:55 AM 50.2 °F - 40.3 °F 69% 30.02 in 10.0 mi Calm Calm - N/A   Overcast
6:15 AM 50.0 °F - 41.2 °F 72% 30.03 in 10.0 mi North 5.8 mph - N/A   Overcast
6:35 AM 50.4 °F - 42.8 °F 75% 30.05 in 10.0 mi NNW 5.8 mph 16.1 mph N/A   Overcast
6:55 AM 49.8 °F - 40.6 °F 71% 30.06 in 10.0 mi NNW 9.2 mph 17.3 mph N/A   Overcast
7:15 AM 49.3 °F - 40.3 °F 71% 30.09 in 10.0 mi North 6.9 mph - N/A   Mostly Cloudy
7:35 AM 50.0 °F - 40.5 °F 70% 30.10 in 10.0 mi North 4.6 mph - N/A   Scattered Clouds
7:55 AM 50.7 °F - 40.8 °F 69% 30.12 in 10.0 mi North 6.9 mph - N/A   Clear
8:15 AM 51.8 °F - 40.3 °F 65% 30.12 in 10.0 mi NNW 10.4 mph - N/A   Clear
8:35 AM 51.8 °F - 39.9 °F 64% 30.13 in 10.0 mi NNW 10.4 mph - N/A   Clear
8:55 AM 53.4 °F - 39.2 °F 59% 30.14 in 10.0 mi NNW 9.2 mph - N/A   Mostly Cloudy
9:15 AM 52.2 °F - 38.5 °F 60% 30.16 in 10.0 mi NNW 10.4 mph 19.6 mph N/A   Overcast
9:35 AM 53.6 °F - 37.4 °F 54% 30.16 in 10.0 mi NNW 13.8 mph 20.7 mph N/A   Scattered Clouds
9:55 AM 53.1 °F - 34.9 °F 50% 30.17 in 10.0 mi NNW 13.8 mph 21.9 mph N/A   Scattered Clouds
10:15 AM 53.8 °F - 35.6 °F 50% 30.19 in 10.0 mi NNW 10.4 mph 17.3 mph N/A   Clear
10:35 AM 54.3 °F - 35.4 °F 49% 30.20 in 10.0 mi NW 12.7 mph 17.3 mph N/A   Clear
10:55 AM 54.9 °F - 34.9 °F 47% 30.20 in 10.0 mi North 11.5 mph 17.3 mph N/A   Clear
11:15 AM 54.9 °F - 33.8 °F 45% 30.20 in 10.0 mi NW 12.7 mph 20.7 mph N/A   Clear
11:35 AM 55.6 °F - 33.1 °F 43% 30.20 in 10.0 mi North 12.7 mph 20.7 mph N/A   Clear
11:55 AM 55.8 °F - 32.9 °F 42% 30.20 in 10.0 mi North 13.8 mph 18.4 mph N/A   Clear
12:15 PM 56.5 °F - 32.7 °F 41% 30.20 in 10.0 mi NNW 10.4 mph 18.4 mph N/A   Clear
12:35 PM 56.5 °F - 32.2 °F 40% 30.20 in 10.0 mi North 11.5 mph 16.1 mph N/A   Clear
12:55 PM 57.4 °F - 30.4 °F 36% 30.20 in 10.0 mi North 9.2 mph 16.1 mph N/A   Clear
1:15 PM 57.9 °F - 29.1 °F 33% 30.20 in 10.0 mi NNW 8.1 mph 17.3 mph N/A   Clear
1:35 PM 57.2 °F - 27.1 °F 32% 30.21 in 10.0 mi NNE 10.4 mph 17.3 mph N/A   Clear
1:55 PM 57.7 °F - 27.1 °F 31% 30.21 in 10.0 mi NNW 9.2 mph - N/A   Clear
2:15 PM 57.6 °F - 26.1 °F 30% 30.22 in 10.0 mi North 8.1 mph 18.4 mph N/A   Clear
2:40 PM 58.1 °F - 23.5 °F 26% 30.22 in 10.0 mi North 9.2 mph 17.3 mph N/A   Clear
3:00 PM 57.7 °F - 23.2 °F 26% 30.23 in 10.0 mi North 6.9 mph - N/A   Clear
3:20 PM 57.6 °F - 22.3 °F 26% 30.23 in 10.0 mi NNW 9.2 mph - N/A   Clear
3:40 PM 57.4 °F - 22.6 °F 26% 30.24 in 10.0 mi North 9.2 mph - N/A   Clear
3:55 PM 56.8 °F - 21.7 °F 26% 30.24 in 10.0 mi North 5.8 mph - N/A   Clear
4:20 PM 56.3 °F - 22.6 °F 27% 30.25 in 10.0 mi North 9.2 mph - N/A   Clear
4:40 PM 55.4 °F - 22.1 °F 27% 30.26 in 10.0 mi NNW 5.8 mph - N/A   Clear
5:00 PM 54.5 °F - 19.0 °F 25% 30.27 in 10.0 mi NNW 8.1 mph - N/A   Clear
5:20 PM 53.2 °F - 19.0 °F 26% 30.28 in 10.0 mi NNW 4.6 mph - N/A   Clear
5:40 PM 51.8 °F - 21.4 °F 30% 30.29 in 10.0 mi Calm Calm - N/A   Clear
5:55 PM 48.4 °F - 26.6 °F 43% 30.29 in 10.0 mi Calm Calm - N/A   Clear
6:20 PM 47.3 °F - 28.0 °F 47% 30.30 in 10.0 mi Calm Calm - N/A   Clear
6:40 PM 46.4 °F - 26.8 °F 46% 30.31 in 10.0 mi Calm Calm - N/A   Clear
7:00 PM 44.2 °F - 31.5 °F 61% 30.31 in 10.0 mi Calm Calm - N/A   Clear
7:20 PM 43.2 °F - 30.7 °F 62% 30.32 in 10.0 mi Calm Calm - N/A   Clear
7:40 PM 41.9 °F - 31.8 °F 67% 30.33 in 10.0 mi Calm Calm - N/A   Clear
8:00 PM 42.1 °F 40.2 °F 32.0 °F 67% 30.35 in 10.0 mi North 3.5 mph - N/A   Clear
8:20 PM 44.6 °F 42.2 °F 28.6 °F 53% 30.36 in 10.0 mi North 4.6 mph - N/A   Clear
8:40 PM 43.0 °F - 30.9 °F 62% 30.37 in 10.0 mi Calm Calm - N/A   Clear
9:00 PM 41.4 °F - 32.4 °F 70% 30.39 in 10.0 mi Calm Calm - N/A   Clear
9:20 PM 41.7 °F 39.8 °F 31.8 °F 68% 30.40 in 10.0 mi North 3.5 mph - N/A   Clear
9:40 PM 43.3 °F 41.7 °F 27.9 °F 54% 30.41 in 10.0 mi North 3.5 mph - N/A   Clear
10:00 PM 43.7 °F - 27.3 °F 53% 30.42 in 10.0 mi Calm Calm - N/A   Clear
10:20 PM 43.0 °F - 26.8 °F 53% 30.43 in 10.0 mi Calm Calm - N/A   Clear
10:40 PM 43.0 °F 40.3 °F 25.9 °F 51% 30.43 in 10.0 mi NNE 4.6 mph - N/A   Clear